Stevens Point, WI

1:49 AM CST on February 21, 2018 (GMT -0600)
Stevens Point Municipal

Weather History for KSTE - February, 2013

Change the Weather History Date:

Thursday, February 21, 2013

  Actual Average Record
Temperature  
Mean Temperature 7 °F -  
Max Temperature 20 °F 33 °F 56 °F (2017)
Min Temperature -6 °F 14 °F -23 °F (2008)
Degree Days  
Heating Degree Days 58    
Moisture  
Dew Point 5 °F    
Average Humidity 82    
Maximum Humidity 92    
Minimum Humidity 68    
Precipitation  
Precipitation 0.00 in - - ()
Sea Level Pressure  
Sea Level Pressure 30.31 in    
Wind  
Wind Speed 4 mph (ENE)    
Max Wind Speed 21 mph    
Max Gust Speed 29 mph    
Visibility 10 miles    
Events Snow    
Averages and records for this station are not official NWS values.
T = Trace of Precipitation, MM = Missing Value Source: NWS Daily Summary

Daily Weather History Graph

Daily Weather History Graph

Search for Another Location

Airport or City:

Trip Planner

Search our weather history database for the weather conditions in past years. The results will help you decide how hot, cold, wet, or windy it might be!

Date:

Astronomy

Feb. 21, 2013 Rise Set
Actual Time 6:48 AM CST 5:35 PM CST
Civil Twilight 6:18 AM CST 6:05 PM CST
Nautical Twilight 5:45 AM CST 6:39 PM CST
Astronomical Twilight 5:11 AM CST 7:12 PM CST
Moon 1:44 PM CST 3:59 AM CST
Length of Visible Light 11h 46m
Length of Day
10h 47m
Waxing Gibbous, 84% of the Moon is Illuminated
Feb 21
Waxing Gibbous
Feb 25
Full
Mar 4
Last Quarter
Mar 11
New
Mar 19
First Quarter

Hourly Weather History & Observations

Time (CST) Temp. Windchill Dew Point Humidity Pressure Visibility Wind Dir Wind Speed Gust Speed Precip Events Conditions
12:15 AM 3.9 °F - -2.0 °F 76% 30.38 in 10.0 mi Calm Calm - N/A   Clear
12:35 AM 3.9 °F - -0.9 °F 80% 30.38 in 10.0 mi Calm Calm - N/A   Clear
12:55 AM 1.6 °F - -2.6 °F 83% 30.38 in 10.0 mi Calm Calm - N/A   Clear
1:15 AM 0.1 °F - -3.3 °F 85% 30.39 in 10.0 mi Calm Calm - N/A   Clear
1:35 AM -0.0 °F - -3.1 °F 87% 30.39 in 10.0 mi Calm Calm - N/A   Clear
1:55 AM -0.2 °F - -4.2 °F 83% 30.39 in 10.0 mi Calm Calm - N/A   Clear
2:15 AM -2.2 °F - -5.6 °F 85% 30.39 in 10.0 mi Calm Calm - N/A   Clear
2:35 AM -4.2 °F -12.6 °F -7.4 °F 86% 30.39 in 10.0 mi NNE 3.5 mph - N/A   Clear
2:55 AM -3.3 °F - -6.7 °F 85% 30.39 in 10.0 mi Calm Calm - N/A   Clear
3:15 AM -4.9 °F - -8.3 °F 85% 30.38 in 10.0 mi Calm Calm - N/A   Clear
3:35 AM -5.4 °F - -9.8 °F 82% 30.38 in 10.0 mi Calm Calm - N/A   Clear
3:55 AM -3.5 °F - -7.1 °F 85% 30.39 in 10.0 mi Calm Calm - N/A   Clear
4:15 AM -4.0 °F - -7.8 °F 84% 30.40 in 10.0 mi Calm Calm - N/A   Clear
4:35 AM -3.8 °F - -8.1 °F 82% 30.40 in 10.0 mi Calm Calm - N/A   Clear
4:55 AM -6.3 °F - -10.3 °F 83% 30.41 in 10.0 mi Calm Calm - N/A   Clear
5:15 AM -5.4 °F - -8.9 °F 85% 30.41 in 10.0 mi Calm Calm - N/A   Clear
6:15 AM -6.9 °F -15.7 °F -10.8 °F 83% 30.38 in 10.0 mi North 3.5 mph - N/A   Clear
6:35 AM -5.8 °F -16.7 °F -9.6 °F 84% 30.35 in 10.0 mi NNE 4.6 mph - N/A   Clear
6:55 AM -4.9 °F -17.4 °F -8.5 °F 84% 30.33 in 10.0 mi NNE 5.8 mph - N/A   Clear
7:15 AM -3.5 °F -18.4 °F -6.9 °F 85% 30.31 in 10.0 mi NE 8.1 mph - N/A   Clear
7:35 AM -0.4 °F -10.4 °F -4.4 °F 83% 30.37 in 10.0 mi South 4.6 mph - N/A   Clear
7:55 AM 1.0 °F - -3.1 °F 83% 30.42 in 10.0 mi Calm Calm - N/A   Mostly Cloudy
8:15 AM 3.7 °F - -0.4 °F 83% 30.42 in 4.0 mi Calm Calm - N/A Snow Light Snow
8:35 AM 4.1 °F -3.2 °F 0.3 °F 84% 30.42 in 5.0 mi NNE 3.5 mph - N/A Snow Light Snow
8:55 AM 5.2 °F -6.7 °F 1.9 °F 86% 30.42 in 10.0 mi NNE 6.9 mph - N/A   Overcast
9:15 AM 5.9 °F -5.8 °F 3.2 °F 89% 30.41 in 10.0 mi NE 6.9 mph - N/A   Overcast
9:35 AM 7.2 °F -3.0 °F 4.1 °F 87% 30.42 in 10.0 mi NE 5.8 mph - N/A   Overcast
9:55 AM 8.4 °F -4.9 °F 5.5 °F 88% 30.42 in 10.0 mi ENE 9.2 mph - N/A Snow Light Snow
10:15 AM 9.3 °F -0.5 °F 5.9 °F 86% 30.41 in 10.0 mi NE 5.8 mph - N/A Snow Light Snow
10:35 AM 9.7 °F 1.4 °F 6.1 °F 85% 30.40 in 7.0 mi NE 4.6 mph - N/A Snow Light Snow
10:55 AM 10.2 °F -0.6 °F 6.4 °F 85% 30.40 in 10.0 mi NNE 6.9 mph - N/A Snow Light Snow
11:15 AM 10.8 °F 1.2 °F 6.6 °F 83% 30.40 in 7.0 mi East 5.8 mph - N/A Snow Light Snow
11:35 AM 11.3 °F 0.7 °F 6.8 °F 82% 30.40 in 10.0 mi NE 6.9 mph - N/A Snow Light Snow
11:55 AM 12.2 °F 2.9 °F 7.2 °F 80% 30.39 in 10.0 mi NE 5.8 mph - N/A Snow Light Snow
12:15 PM 12.9 °F 2.6 °F 7.3 °F 78% 30.38 in 10.0 mi NE 6.9 mph - N/A   Overcast
12:35 PM 14.0 °F 6.5 °F 7.7 °F 76% 30.37 in 10.0 mi NE 4.6 mph - N/A   Overcast
12:55 PM 14.9 °F 7.5 °F 8.1 °F 74% 30.34 in 10.0 mi East 4.6 mph - N/A   Mostly Cloudy
1:15 PM 15.6 °F 8.3 °F 8.4 °F 73% 30.32 in 10.0 mi NE 4.6 mph - N/A   Scattered Clouds
1:35 PM 16.5 °F 8.1 °F 9.0 °F 72% 30.31 in 10.0 mi ENE 5.8 mph - N/A   Clear
1:55 PM 17.1 °F 6.6 °F 9.5 °F 72% 30.30 in 10.0 mi ENE 8.1 mph - N/A   Clear
2:15 PM 17.8 °F 5.9 °F 9.7 °F 71% 30.29 in 10.0 mi NE 10.4 mph - N/A   Clear
2:55 PM 19.2 °F 10.2 °F 10.4 °F 69% 30.28 in 10.0 mi ENE 6.9 mph - N/A   Clear
3:15 PM 19.4 °F 7.9 °F 10.8 °F 69% 30.28 in 10.0 mi East 10.4 mph - N/A   Clear
3:35 PM 19.8 °F 9.9 °F 10.6 °F 68% 30.27 in 10.0 mi ENE 8.1 mph - N/A   Clear
3:55 PM 19.4 °F 10.4 °F 10.9 °F 70% 30.28 in 10.0 mi ESE 6.9 mph - N/A   Clear
4:15 PM 19.4 °F 11.5 °F 11.1 °F 70% 30.28 in 10.0 mi ESE 5.8 mph - N/A   Clear
4:35 PM 19.4 °F 11.5 °F 11.3 °F 71% 30.27 in 10.0 mi ESE 5.8 mph - N/A   Clear
4:55 PM 18.9 °F 8.8 °F 11.5 °F 73% 30.27 in 10.0 mi East 8.1 mph - N/A   Clear
5:15 PM 18.9 °F 10.8 °F 11.7 °F 74% 30.26 in 10.0 mi ESE 5.8 mph - N/A   Clear
5:35 PM 18.1 °F 10.0 °F 11.7 °F 76% 30.26 in 10.0 mi East 5.8 mph - N/A   Clear
5:55 PM 17.6 °F 10.7 °F 11.5 °F 77% 30.25 in 10.0 mi East 4.6 mph - N/A   Clear
6:15 PM 18.0 °F 8.7 °F 12.0 °F 78% 30.22 in 10.0 mi ENE 6.9 mph - N/A   Clear
6:35 PM 18.7 °F 7.8 °F 13.1 °F 79% 30.21 in 10.0 mi ENE 9.2 mph - N/A   Clear
6:55 PM 19.4 °F 8.6 °F 14.0 °F 80% 30.22 in 10.0 mi East 9.2 mph - N/A   Mostly Cloudy
7:15 PM 19.9 °F 8.6 °F 14.5 °F 80% 30.20 in 10.0 mi East 10.4 mph - N/A   Overcast
7:35 PM 20.1 °F 6.9 °F 15.3 °F 81% 30.19 in 10.0 mi East 13.8 mph 18.4 mph N/A   Overcast
7:55 PM 20.1 °F 5.0 °F 15.8 °F 83% 30.19 in 10.0 mi East 18.4 mph 26.5 mph N/A   Overcast
8:15 PM 19.9 °F 6.7 °F 16.5 °F 87% 30.20 in 10.0 mi East 13.8 mph 24.2 mph N/A   Overcast
8:35 PM 19.8 °F 4.5 °F 16.7 °F 88% 30.18 in 10.0 mi East 18.4 mph 25.3 mph N/A   Overcast
8:55 PM 19.8 °F 3.7 °F 17.1 °F 89% 30.17 in 10.0 mi East 20.7 mph 25.3 mph N/A   Overcast
9:15 PM 19.4 °F 5.5 °F 17.2 °F 91% 30.15 in 10.0 mi East 15.0 mph 23.0 mph N/A   Overcast
9:35 PM 19.4 °F 3.2 °F 17.1 °F 91% 30.15 in 10.0 mi East 20.7 mph 26.5 mph N/A   Overcast
9:55 PM 19.4 °F 4.1 °F 17.4 °F 92% 30.14 in 7.0 mi East 18.4 mph 26.5 mph N/A   Overcast
10:15 PM 19.4 °F 4.1 °F 17.4 °F 92% 30.12 in 10.0 mi ENE 18.4 mph 27.6 mph N/A   Overcast
10:35 PM 19.4 °F 4.1 °F 17.4 °F 92% 30.11 in 10.0 mi ENE 18.4 mph 28.8 mph N/A   Overcast
10:55 PM 19.4 °F 4.1 °F 17.4 °F 92% 30.11 in 10.0 mi East 18.4 mph 25.3 mph N/A   Overcast
11:15 PM 19.9 °F 4.8 °F 17.2 °F 89% 30.11 in 10.0 mi East 18.4 mph 26.5 mph N/A   Overcast
11:35 PM 20.1 °F 6.9 °F 16.9 °F 87% 30.11 in 10.0 mi East 13.8 mph 20.7 mph N/A   Overcast
11:55 PM 20.3 °F 7.2 °F 16.5 °F 85% 30.10 in 10.0 mi East 13.8 mph 21.9 mph N/A   Overcast